User: anonymous   Login
Location: Unspecified
(0.0000°N, 0.0000°E)
Time: 06:44:05
(UTC+00:00)
Language:

Aurora 1 - Orbit

View from above orbital plane
View from above orbital plane
View from above satellite
View from above satellite

Ground track
Ground track

The orbit data is extracted from the following two-line orbital elements,

1  2876U 67065B   18172.77227866 -.00000002 +00000-0 -23427-2 0  9995
2  2876 090.1401 307.0627 0073295 353.7655 006.2265 08.36562858145625
Epoch (UTC): 21 June 2018 18:32:04
Eccentricity: 0.0073295
inclination: 90.1401°
perigee height: 3797 km
apogee height: 3947 km
right ascension of ascending node: 307.0627°
argument of perigee: 353.7655°
revolutions per day: 8.36562858
mean anomaly at epoch: 6.2265°
orbit number at epoch: 14562

The dashed part of the orbit path shows where the satellite is in the earth's shadow,  

DLR